Location: Aldenham
(51.6667°N, 0.3500°W)
Time: 07:22:10
(UTC+00:00)

Altair - Pass Details

Date: 22 February 2026
Orbit: 1502 x 1682 km, 47.2° (Epoch: 9 March)

Event Time Altitude Azimuth Distance (km) Brightness Sun altitude
Rises 07:26:53 0° 274° (W) 4,658 9.4 2.9°
Reaches altitude 10° 07:29:54 10° 271° (W) 3,690 8.9 3.3°
Maximum altitude 07:39:02 63° 194° (SSW) 1,712 8.0 4.6°
Drops below altitude 10° 07:48:30 10° 116° (ESE) 3,815 12.9 6.0°
Sets 07:51:41 0° 114° (ESE) 4,824 13.0 6.4°
